Location: Dunedin
(45.8670°S, 170.5000°E)
Time: 05:16:33
(UTC+12:00)

ISS - Visible Passes

Search period start: 21 April 2024 00:00
Search period end: 01 May 2024 00:00
Orbit: 412 x 418 km, 51.6° (Epoch: 20 April)

Date Brightness Start Highest point End Pass type
(mag) Time Alt. Az. Time Alt. Az. Time Alt. Az.
21 Apr -3.1 18:41:45 10° W 18:45:07 53° SSW 18:48:02 13° SE visible
21 Apr -1.3 20:19:14 10° WSW 20:20:54 22° SW 20:20:54 22° SW visible
22 Apr -2.4 19:30:09 10° WSW 19:33:16 31° S 19:33:54 29° SSE visible
23 Apr -2.6 18:41:00 10° W 18:44:12 35° SSW 18:46:52 13° SE visible
23 Apr -1.2 20:18:20 10° WSW 20:19:44 20° SW 20:19:44 20° SW visible
24 Apr -2.5 19:29:18 10° WSW 19:32:24 30° S 19:32:40 30° SSE visible
25 Apr -2.4 18:40:09 10° WSW 18:43:14 30° S 18:45:34 15° SE visible
25 Apr -1.2 20:17:10 10° WSW 20:18:25 20° SW 20:18:25 20° SW visible
26 Apr -2.8 19:28:07 10° WSW 19:31:19 36° SSE 19:31:19 36° SSE visible
27 Apr -2.6 18:39:02 10° WSW 18:42:09 31° S 18:44:13 17° ESE visible
27 Apr -1.2 20:15:46 10° WSW 20:17:05 21° WSW 20:17:05 21° WSW visible
28 Apr -3.5 19:26:42 10° WSW 19:29:59 55° SSE 19:29:59 55° SSE visible
29 Apr -3.1 18:37:35 10° WSW 18:40:53 42° SSE 18:42:56 19° E visible
29 Apr -1.2 20:14:20 10° WSW 20:15:48 22° W 20:15:48 22° W visible
30 Apr -3.7 19:25:07 10° WSW 19:28:33 76° NNW 19:28:48 70° NNE visible
